Simultaneous Nadir Overpasses (SNOs) Predictions

Prediction of SNOs over PacNW region [( 10.00, 139.50) to ( 22.70, 165.60)] between AQUA and NPP Satellites:

Table of predicted SNOs over PacNW region for the next 30.0 days since TLE Epoch: 8/17/2012
Index Date (AQUA) Time (AQUA) AQUA Lat,Lon Date (NPP) Time (NPP) NPP Lat,Lon Distance(km) Time Diff (sec)
1 08/22/2012 15:59:14 22.62, 147.44 08/22/2012 15:59:52 23.24, 144.58 301.35 38
2 08/30/2012 15:10:25 20.29, 159.24 08/30/2012 15:09:45 20.82, 156.66 275.20 40
3 09/07/2012 15:59:09 22.63, 147.43 09/07/2012 15:59:44 23.24, 144.59 299.69 35




NCC Satellite Simultaneous Nadir Overpasses (SNOs) Prediction Service
